Regional Weather Roundup
Issued by NWS

Current Version | Previous Version | Text Only | Print | Product List | Glossary On
Versions: 1 2 3 4 5 6 7 8 9 10 11 12 13 14 15 16 17 18 19 20 21 22 23 24 25 26 27 28 29 30 31 32 33 34 35 36 37 38 39 40 41 42 43 44 45 46 47 48 49 50
000
ASUS44 KLUB 281610
RWRTX
WEST TEXAS WEATHER ROUNDUP
NATIONAL WEATHER SERVICE LUBBOCK TX
1100 AM CDT WED SEP 28 2016

NOTE: "FAIR" INDICATES FEW OR NO CLOUDS BELOW 12,000 FEET WITH NO
SIGNIFICANT WEATHER AND/OR OBSTRUCTIONS TO VISIBILITY.

TXZ004-006>008-010-012-014-016-OKZ002-281700-
TEXAS PANHANDLE/OKLAHOMA PANHANDLE

CITY           SKY/WX    TMP DP  RH WIND       PRES   REMARKS
AMARILLO       SUNNY     76  39  26 NW12      30.22R
BORGER         SUNNY     74  39  28 W7        30.19R
CANADIAN       SUNNY     70  48  45 NW5       30.16R
DALHART        SUNNY     76  39  26 N3        30.25R
DUMAS          SUNNY     77  40  27 W6        30.22R
GUYMON         SUNNY     78  38  23 NE10      30.19R
HEREFORD       SUNNY     77  43  28 N3        30.24R
PAMPA          SUNNY     75  41  29 W8        30.21R
PERRYTON       SUNNY     80  41  24 NE10      30.17R
$$

TXZ026-029-035-045-048-281700-
SOUTHERN PANHANDLE/SOUTH PLAINS/ROLLING PLAINS

CITY           SKY/WX    TMP DP  RH WIND       PRES   REMARKS
CHILDRESS      SUNNY     77  47  34 NW7       30.13R
SEMINOLE       SUNNY     71  52  51 NW5       30.23R
LUBBOCK        MOSUNNY   74  48  39 NW8       30.20R
PLAINVIEW      SUNNY     70  48  45 NW6       30.20S
SNYDER           N/A     70  54  56 W3        30.18R
$$

TXZ052-054-060>062-072-078-127-140-154-169-281700-
PERMIAN BASIN/CONCHO VALLEY/BIG COUNTRY/EDWARDS PLATEAU

CITY           SKY/WX    TMP DP  RH WIND       PRES   REMARKS
ABILENE        SUNNY     73  54  51 W3        30.16R
BIG SPRING     SUNNY     73  56  55 W3        30.21S
BROWNWOOD      SUNNY     72  57  60 CALM      30.14S
JUNCTION       SUNNY     75  32  20 VRB5      30.15R
MIDLAND        SUNNY     74  54  49 NW6       30.20R
ODESSA         SUNNY     72  53  51 NW5       30.21R
SAN ANGELO     SUNNY     74  57  55 CALM      30.16R
SONORA         SUNNY     75  54  46 CALM      30.22R
SWEETWATER     SUNNY     72  51  47 NW5       30.19S
WINK           SUNNY     72  54  53 CALM      30.19R
$$

TXZ055-058-074-075-080-082-281700-
FAR WEST/SOUTHWEST MOUNTAINS/TRANS PECOS

CITY           SKY/WX    TMP DP  RH WIND       PRES   REMARKS
ALPINE         SUNNY     70  58  66 CALM      30.32R
EL PASO        PTSUNNY   69  54  58 CALM      30.23R
FORT STOCKTON  SUNNY     70  58  65 NW6       30.21R
GUADALUPE PASS CLOUDY    63  54  72 W3        30.32R
MARFA          SUNNY    N/A N/A N/A CALM      30.30R
PECOS          SUNNY     67  57  72 CALM      30.20R
PRESIDIO       FAIR      70  58  65 CALM      30.21R
$$

TXZ014-016-019-021>030-083-281700
TEXAS TECH WEST TEXAS MESONET/TEXAS PANHANDLE/NORTHERN SOUTH PLAINS

CITY           SKY/WX    TMP DP  RH WIND       PRES   REMARKS
ABERNATHY 5ENE   N/A     73  48  41 NW9       30.23S
AMARILLO 9NNE    N/A     75  41  30 NW6       30.23R
AMARILLO 7SSE    N/A     78  39  25 NW8       30.24R
AMHERST 1NE      N/A     72  48  41 W8        30.24S
BOOTLEG 11WNW    N/A     74  37  26 NW6       30.29R
CANADIAN 6E      N/A     76  48  36 NW3       30.15R
CAPROCK CYN SP   N/A     81  43  26 NW2       30.18R
CHILDRESS 2NNE   N/A     79  47  32 W7        30.13S
CLARENDON 2WSW   N/A     77  46  32 NW9       30.18R
CLAUDE 12SW      N/A     78  42  27 NW10      30.22R
DIMMITT 2NE      N/A     71  46  39 W7        30.25R
FLOYDADA 2NNE    N/A     73  46  36 NW8       30.21R
FRIONA 2NE       N/A     75  42  31 W7        30.26S
GOODLETT 3W      N/A     79  49  35 NW5       30.11S
HART 3N          N/A     72  46  39 NW7       30.24R
HEREFORD 2NW     N/A     77  37  23 NW2       30.26R
MCLEAN 1E        N/A     78  44  30 NW8       30.17R
MULESHOE 2SSW    N/A     72  49  44 W7        30.25R
OLTON 6S         N/A     72  47  42 NW8       30.24R
PALO DURO SP     N/A     79  45  30 NE5       30.23R
PAMPA 2E         N/A     76  43  30 NW6       30.20S
PLAINVIEW 1S     N/A     71  50  46 W7        30.23R
SILVERTON 7ESE   N/A     80  43  27 NW7       30.19R
TULIA 2ENE       N/A     78  44  30 NW7       30.23
TURKEY 2WSW      N/A     80  42  26 NW9       30.17R
UMBARGER 3NNE    N/A     77  41  27 W5        30.24R
$$

TXZ033>036-039>041-045>048-281700
TEXAS TECH WEST TEXAS MESONET/SOUTH PLAINS

CITY           SKY/WX    TMP DP  RH WIND       PRES   REMARKS
AIKEN 3WSW       N/A     73  49  42 NW3       30.23S
ANDREWS 2NE      N/A     72  52  49 NW3       30.24R
ANTON 6SSW       N/A     72  51  48 NW8       30.23R
BROWNFIELD 2S    N/A     70  52  52 NW7       30.23R
DENVR CTY 7WNW   N/A     72  46  39 W3        30.24R
GAIL 2ESE        N/A     72  54  53 N2        30.19R
LAMESA 2SE       N/A     71  55  56 NW7       30.22R
LEVELLAND 4S     N/A     72  47  40 NW7       30.24R
LUBBOCK 3WNW     N/A     73  46  39 NW8       30.23R
MORTON 1ENE      N/A     73  48  41 NW7       30.24S
ODONNELL 1N      N/A     71  51  50 NW7       30.22R
PLAINS 3N        N/A     72  51  46 NW6       30.25
RALLS 1SE        N/A     75  45  34 NW10      30.22R
REESE CENTER     N/A     71  47  41 NW8       30.23S
SEAGRAVES 1SW    N/A     73  47  38 NW6       30.23R
SEMINOLE 2NNE    N/A     72  51  48 W5        30.23R
SLATON 2NE       N/A     72  47  41 N7        30.21S
SNYDER 3E        N/A     73  54  51 W5        30.18R
SUNDOWN 8SW      N/A     73  50  45 NW7       30.24R
TAHOKA 3NNE      N/A     73  51  46 NW7       30.22R
WOLFFORTH 6SSW   N/A     72  47  40 NW8       30.23R
$$

TXZ031-032-036>038-042>044-281700-
TEXAS TECH WEST TEXAS MESONET/ROLLING PLAINS

CITY           SKY/WX    TMP DP  RH WIND       PRES   REMARKS
ASPERMONT 3NE    N/A     75  52  44 W2        30.14S
FLUVANNA 3WNW    N/A     72  50  46 NW8       30.20R
GRAHAM 5SSW      N/A     71  52  50 NW12      30.20R
GUTHRIE 10WSW    N/A     79  50  35 N2        30.13S
HASKELL 1NW      N/A     70  53  54 SW2       30.13S
JAYTON 1SSE      N/A     73  52  47 W6        30.14S
KNOX CITY 3NW    N/A     74  51  44 SW1       30.13S
LK A HENRY 1NW   N/A     73  50  45 W7        30.18R
NORTHFIELD 1S    N/A     78  47  33 NW8       30.15R
ODELL 4ENE       N/A     76  54  46 W6        30.11S
PADUCAH 10SW     N/A     79  47  31 NW8       30.14S
POST 1NE         N/A     75  48  37 NW9       30.19R
RRING SPRGS 3N   N/A     82  43  25 N8        30.17R
SEYMOUR 3NW      N/A     71  55  57 SW3       30.12R
SPUR 1W          N/A     79  45  30 NW7       30.16R
WHITE RVR 6NE    N/A     76  46  33 NW13      30.18S
$$

TXZ052-054-060>062-072-078-127-140-154-169-281700-
TEXAS TECH WEST TEXAS MESONET/PERMIAN BASIN/
CONCHO VALLEY/BIG COUNTRY/EDWARDS PLATEAU

CITY           SKY/WX    TMP DP  RH WIND       PRES   REMARKS
COYANOSA 2N      N/A     71  56  60 NE1       30.21R
JUNCTION 1SSW    N/A     76  63  64 NW1       30.17R
MERTZON 3NNE     N/A     75  56  52 NW5       30.20R
SAN ANGELO 7NW   N/A     71  55  57 W2        30.17S
STRLNG CT 4WSW   N/A     74  54  49 W8        30.20R
ST LAWRNCE 5SW   N/A     70  56  59 NW5       30.21R
WALL 1E          N/A     70  56  62 W6        30.19S
$$

TXZ055-058-074-075-080-082-281700-
TEXAS TECH WEST TEXAS MESONET/FAR WEST/SOUTHWEST MOUNTAINS/TRANS PECOS

CITY           SKY/WX    TMP DP  RH WIND       PRES   REMARKS
PRSMN GAP BBNP   N/A     70  58  64 S6        30.22R
GUADLPE MTN NP   N/A     66  51  57 E6        30.34R
$$



USA.gov is the U.S. government's official web portal to all federal, state and local government web resources and services.